When you browse on this site, cookies collect data to enhance your experience and personalize the content and advertising you see.
Visit our Privacy Policy to learn more. By continuing to use the site, you agree to this use of cookies and data.
  • In Austria
  • List of Countries
  • For 7 days
  • Water Temperature
  • Satellite Maps
  • Weather Map
  • News
  • Weather Widgets
  • user-avatar
    Login

    Hourly Weather Celinki

    Today, 16 January, Wednesday

    Time Temperature Precipitation Wind Pressure Humidity
    00:00 +3°C° 0.1 mm 9 mps 747 mmHg 85%
    01:00 +3°C° 0 mm 7 mps 747 mmHg 84%
    02:00 +3°C° 0.4 mm 7 mps 747 mmHg 86%
    03:00 +3°C° 0.4 mm 7 mps 747 mmHg 88%
    04:00 +3°C° 0.4 mm 6 mps 748 mmHg 90%
    05:00 +4°C° 0.4 mm 7 mps 748 mmHg 88%
    06:00 +4°C° 0.4 mm 7 mps 748 mmHg 87%
    07:00 +4°C° 0.4 mm 7 mps 748 mmHg 85%
    08:00 +4°C° 0 mm 7 mps 749 mmHg 84%
    09:00 +4°C° 0 mm 7 mps 749 mmHg 83%
    10:00 +4°C° 0 mm 7 mps 749 mmHg 82%
    11:00 +4°C° 0.1 mm 7 mps 749 mmHg 82%
    12:00 +4°C° 0.1 mm 7 mps 749 mmHg 82%
    13:00 +4°C° 0.1 mm 6 mps 749 mmHg 81%
    14:00 +4°C° 0 mm 6 mps 749 mmHg 82%
    15:00 +5°C° 0 mm 5 mps 749 mmHg 82%
    16:00 +5°C° 0 mm 5 mps 749 mmHg 82%
    17:00 +5°C° 0 mm 5 mps 748 mmHg 81%
    18:00 +5°C° 0 mm 5 mps 748 mmHg 81%
    19:00 +3°C° 0 mm 5 mps 748 mmHg 80%
    20:00 +3°C° 0 mm 5 mps 747 mmHg 80%
    21:00 +2°C° 0 mm 5 mps 747 mmHg 80%
    22:00 +2°C° 0 mm 5 mps 747 mmHg 80%
    23:00 +2°C° 0 mm 5 mps 746 mmHg 78%

    Tomorrow, 17 January, Thursday

    Time Temperature Precipitation Wind Pressure Humidity
    00:00 +2°C° 0 mm 5 mps 745 mmHg 76%
    01:00 +2°C° 0 mm 5 mps 745 mmHg 74%
    02:00 +2°C° 0 mm 6 mps 744 mmHg 72%
    03:00 +2°C° 0 mm 6 mps 744 mmHg 70%
    04:00 +2°C° 0 mm 6 mps 743 mmHg 69%
    05:00 +2°C° 0 mm 6 mps 743 mmHg 70%
    06:00 +2°C° 0 mm 7 mps 743 mmHg 71%
    07:00 0°C° 0 mm 7 mps 743 mmHg 72%
    08:00 +2°C° 0 mm 7 mps 744 mmHg 73%
    09:00 +3°C° 0 mm 7 mps 744 mmHg 74%
    10:00 +2°C° 0 mm 8 mps 744 mmHg 75%
    11:00 +4°C° 0 mm 8 mps 744 mmHg 71%
    12:00 +5°C° 0 mm 8 mps 744 mmHg 67%
    13:00 +5°C° 0 mm 8 mps 744 mmHg 62%
    14:00 +5°C° 0 mm 7 mps 744 mmHg 64%
    15:00 +4°C° 0 mm 6 mps 743 mmHg 66%
    16:00 +5°C° 0 mm 5 mps 743 mmHg 68%
    17:00 +3°C° 0.1 mm 6 mps 743 mmHg 70%
    18:00 +3°C° 0.1 mm 7 mps 743 mmHg 71%
    19:00 +2°C° 0.1 mm 8 mps 743 mmHg 72%
    20:00 +1°C° 0.2 mm 8 mps 744 mmHg 69%
    21:00 +1°C° 0.2 mm 8 mps 744 mmHg 66%
    22:00 0°C° 0.2 mm 7 mps 745 mmHg 63%
    23:00 -1°C° 0 mm 7 mps 745 mmHg 65%

    Day after tomorrow, 18 January, Friday

    Time Temperature Precipitation Wind Pressure Humidity
    00:00 -1°C° 0 mm 7 mps 746 mmHg 67%
    01:00 -2°C° 0 mm 7 mps 746 mmHg 69%
    02:00 -2°C° 0.1 mm 7 mps 746 mmHg 69%
    03:00 -2°C° 0.1 mm 8 mps 747 mmHg 69%
    04:00 -2°C° 0.1 mm 8 mps 747 mmHg 68%
    05:00 -2°C° 0.3 mm 8 mps 748 mmHg 70%
    06:00 -2°C° 0.3 mm 8 mps 749 mmHg 71%
    07:00 -2°C° 0.3 mm 8 mps 750 mmHg 73%
    08:00 -2°C° 0 mm 8 mps 751 mmHg 75%
    09:00 -2°C° 0 mm 7 mps 752 mmHg 77%
    10:00 -2°C° 0 mm 7 mps 753 mmHg 79%
    11:00 -2°C° 0 mm 6 mps 754 mmHg 74%
    12:00 -2°C° 0 mm 6 mps 755 mmHg 69%
    13:00 -1°C° 0 mm 6 mps 755 mmHg 64%
    14:00 -1°C° 0 mm 5 mps 756 mmHg 68%
    15:00 -2°C° 0 mm 4 mps 757 mmHg 71%
    16:00 -1°C° 0 mm 3 mps 757 mmHg 74%
    17:00 -2°C° 0 mm 3 mps 757 mmHg 77%
    18:00 -2°C° 0 mm 2 mps 758 mmHg 80%
    19:00 -2°C° 0 mm 2 mps 758 mmHg 84%
    20:00 -2°C° 0 mm 2 mps 758 mmHg 85%
    21:00 -3°C° 0 mm 2 mps 758 mmHg 86%
    22:00 -3°C° 0 mm 2 mps 759 mmHg 88%
    23:00 -3°C° 0 mm 2 mps 759 mmHg 87%

    19 January, Saturday

    Time Temperature Precipitation Wind Pressure Humidity
    00:00 -3°C° 0 mm 2 mps 759 mmHg 86%
    01:00 -4°C° 0 mm 3 mps 759 mmHg 86%
    02:00 -4°C° 0 mm 3 mps 759 mmHg 84%
    03:00 -3°C° 0 mm 2 mps 759 mmHg 81%
    04:00 -3°C° 0 mm 2 mps 759 mmHg 79%
    05:00 -3°C° 0 mm 2 mps 759 mmHg 78%
    06:00 -3°C° 0 mm 2 mps 759 mmHg 76%
    07:00 -3°C° 0 mm 2 mps 759 mmHg 75%
    08:00 -2°C° 0 mm 2 mps 759 mmHg 71%
    09:00 -2°C° 0 mm 2 mps 759 mmHg 68%
    10:00 -1°C° 0 mm 2 mps 759 mmHg 65%
    11:00 +1°C° 0 mm 2 mps 759 mmHg 62%
    12:00 +1°C° 0 mm 2 mps 759 mmHg 58%
    13:00 +3°C° 0 mm 1 mps 758 mmHg 54%
    14:00 +2°C° 0 mm 1 mps 758 mmHg 57%
    15:00 +2°C° 0 mm 1 mps 758 mmHg 60%
    16:00 0°C° 0 mm 0 mps 758 mmHg 62%
    17:00 +1°C° 0 mm 1 mps 758 mmHg 63%
    18:00 0°C° 0 mm 1 mps 758 mmHg 64%
    19:00 0°C° 0 mm 1 mps 758 mmHg 65%
    20:00 0°C° 0 mm 1 mps 758 mmHg 66%
    21:00 0°C° 0 mm 1 mps 758 mmHg 67%
    22:00 0°C° 0 mm 1 mps 758 mmHg 68%
    23:00 -1°C° 0 mm 1 mps 758 mmHg 68%

    20 January, Sunday

    Time Temperature Precipitation Wind Pressure Humidity
    00:00 -1°C° 0 mm 1 mps 758 mmHg 69%
    01:00 -2°C° 0 mm 0 mps 758 mmHg 70%
    02:00 -2°C° 0 mm 0 mps 758 mmHg 70%
    03:00 -2°C° 0 mm 0 mps 758 mmHg 70%
    04:00 -2°C° 0 mm 0 mps 758 mmHg 70%
    05:00 -2°C° 0 mm 0 mps 758 mmHg 70%
    06:00 -2°C° 0 mm 0 mps 758 mmHg 70%
    07:00 -2°C° 0 mm 0 mps 759 mmHg 70%
    08:00 -2°C° 0 mm 0 mps 759 mmHg 67%
    09:00 -1°C° 0 mm 0 mps 759 mmHg 65%
    10:00 0°C° 0 mm 1 mps 760 mmHg 62%
    11:00 +1°C° 0 mm 1 mps 760 mmHg 60%
    12:00 +1°C° 0 mm 2 mps 759 mmHg 59%
    13:00 +1°C° 0 mm 2 mps 759 mmHg 57%
    14:00 +1°C° 0 mm 2 mps 760 mmHg 61%
    15:00 -1°C° 0 mm 2 mps 760 mmHg 66%
    16:00 -2°C° 0 mm 2 mps 760 mmHg 70%
    17:00 -2°C° 0 mm 2 mps 760 mmHg 74%
    18:00 -2°C° 0 mm 2 mps 761 mmHg 78%
    19:00 -2°C° 0 mm 2 mps 761 mmHg 82%
    20:00 -2°C° 0 mm 2 mps 762 mmHg 84%
    21:00 -3°C° 0 mm 2 mps 762 mmHg 87%
    22:00 -3°C° 0 mm 2 mps 763 mmHg 90%
    23:00 -4°C° 0 mm 2 mps 763 mmHg 88%

    21 January, Monday

    Time Temperature Precipitation Wind Pressure Humidity
    00:00 -4°C° 0 mm 2 mps 764 mmHg 85%
    01:00 -4°C° 0 mm 2 mps 764 mmHg 83%
    02:00 -4°C° 0 mm 2 mps 764 mmHg 81%
    03:00 -4°C° 0 mm 2 mps 765 mmHg 80%
    04:00 -4°C° 0 mm 2 mps 765 mmHg 78%
    05:00 -4°C° 0 mm 2 mps 765 mmHg 77%
    06:00 -5°C° 0 mm 2 mps 766 mmHg 77%
    07:00 -3°C° 0 mm 1 mps 766 mmHg 76%
    08:00 -2°C° 0 mm 1 mps 766 mmHg 73%
    09:00 -2°C° 0 mm 1 mps 767 mmHg 70%
    10:00 -1°C° 0 mm 1 mps 767 mmHg 67%
    11:00 0°C° 0 mm 1 mps 767 mmHg 64%
    12:00 0°C° 0 mm 1 mps 767 mmHg 60%
    13:00 +1°C° 0 mm 1 mps 767 mmHg 56%
    14:00 -1°C° 0 mm 0 mps 767 mmHg 59%
    15:00 -1°C° 0 mm 0 mps 767 mmHg 61%
    16:00 -2°C° 0 mm 0 mps 767 mmHg 63%
    17:00 -2°C° 0 mm 0 mps 767 mmHg 65%
    18:00 -2°C° 0 mm 0 mps 767 mmHg 66%
    19:00 -2°C° 0 mm 1 mps 767 mmHg 67%
    20:00 -2°C° 0 mm 1 mps 767 mmHg 68%
    21:00 -2°C° 0 mm 1 mps 767 mmHg 69%
    22:00 -2°C° 0 mm 1 mps 767 mmHg 69%
    23:00 -2°C° 0 mm 1 mps 766 mmHg 70%
    Show more